Home > Weather > Fürstenfeldbruck > Past weeks

Flag for Germany Past Weather in Fürstenfeldbruck, Bavaria, Germany — Yesterday and Last 2 Weeks

Now
64 °F

Broken clouds.


Feels Like: 64 °F
Forecast: 57 / 64 °F
Wind: 12 mph from West

Location: Oberpfaffenhofen

Current Time: Jun 25, 2016 at 9:42:43 PM

Latest Report: Jun 25, 2016 at 8:20 PM


Visibility: N/A

Pressure: 30.01 "Hg (28.23 "Hg at 520m altitude)

Humidity: 94%

Dew Point: 63 °F

Location of FürstenfeldbruckLocation

Past Weather in Fürstenfeldbruck — Graph

°F

Fürstenfeldbruck Temperature Yesterday

Maximum temperature yesterday: 86 °F (at 3:20 PM)
Minimum temperature yesterday: 63 °F (at 6:50 AM)
Average temperature yesterday: 80 °F

High & Low Weather Summary for the Past Weeks

 TemperatureHumidityPressure
High86 °F (Jun 23, 3:20 PM)100% (Jun 14, 6:50 AM)30.30 "Hg (Jun 14, 6:50 AM)
Low48 °F (Jun 17, 6:50 AM)33% (Jun 23, 2:20 PM)29.56 "Hg (Jun 16, 9:50 AM)
Average66 °F70%29.94 "Hg
* Reported Jun 11 9:20 AM — Jun 25 8:20 PM, Fürstenfeldbruck, Weather by CustomWeather, © 2016

Note: Actual official high and low records may vary slightly from our data, if they occured in-between our weather recording intervals... More about our weather records

Advertising

Fürstenfeldbruck Weather History for the Previous 24 Hours

Scroll right to see more
 ConditionsComfort  
Time TempWeatherWind HumidityBarometerVisibility
8:20 PM
Sat, Jun 25
64 °FBroken clouds.12 mph94%30.01 "HgN/A
7:50 PM64 °FBroken clouds.12 mph94%29.98 "HgN/A
7:20 PM63 °FBroken clouds.5 mph94%29.98 "HgN/A
6:50 PM63 °FSprinkles. Broken clouds.8 mph94%29.98 "HgN/A
6:20 PM63 °FSprinkles. Broken clouds.12 mph94%29.98 "HgN/A
5:50 PM63 °FSprinkles. Broken clouds.8 mph88%29.95 "HgN/A
5:20 PM61 °FThunderstorms. Broken clouds.18 mph94%29.95 "Hg4 mi
2:50 PM79 °FPassing clouds.7 mph54%29.89 "HgN/A
2:20 PM79 °FPassing clouds.7 mph54%29.92 "HgN/A
1:50 PM77 °FPassing clouds.6 mph57%29.95 "HgN/A
1:20 PM77 °FPassing clouds.7 mph57%29.95 "HgN/A
12:20 PM77 °FSunny.6 mph51%29.95 "Hg10 mi
10:50 AM73 °FPassing clouds.6 mph69%29.98 "HgN/A
10:20 AM72 °FPassing clouds.8 mph69%29.98 "HgN/A
9:50 AM72 °FSunny.8 mph69%29.98 "Hg10 mi
8:20 AM68 °FSunny.9 mph78%29.98 "Hg10 mi
7:50 AM66 °FSunny.10 mph83%29.98 "Hg10 mi
7:20 AM64 °FPassing clouds.6 mph94%29.98 "HgN/A
Weather by CustomWeather, © 2016

See weather overviewHow to use our weather pages